This is the latest recevied weather packets stored in our database for station/object KY4GW. If no packets are shown the sender has not sent any weather packets the latest 10 day(s).
| Time | Temp. | Humidity | Pressure | Rain* | Wind** | Luminosity | Snow |
|---|---|---|---|---|---|---|---|
| 1778104750 | 15.56° C | 59% | 1015.1 hPa | 0 mm | - | 63 W/m² | - |
| 1778104447 | 15.56° C | 60% | 1015.1 hPa | 0 mm | - | 63 W/m² | - |
| 1778104143 | 15.56° C | 60% | 1015.1 hPa | 0 mm | - | 64 W/m² | - |
| 1778103840 | 15.56° C | 62% | 1015.8 hPa | 0 mm | - | 75 W/m² | - |
| 1778103537 | 15.56° C | 62% | 1015.8 hPa | 0 mm | - | 97 W/m² | - |
| 1778103235 | 15.56° C | 63% | 1015.8 hPa | 0 mm | - | 111 W/m² | - |
| 1778102932 | 16.11° C | 61% | 1015.1 hPa | 0 mm | - | 146 W/m² | - |
| 1778102628 | 16.11° C | 61% | 1015.1 hPa | 0 mm | - | 186 W/m² | - |
| 1778102322 | 16.11° C | 61% | 1015.1 hPa | 0 mm | - | 231 W/m² | - |
| 1778102019 | 16.11° C | 63% | 1015.5 hPa | 0 mm | - | 228 W/m² | - |
| 1778101716 | 16.11° C | 60% | 1015.5 hPa | 0 mm | - | 228 W/m² | - |
| 1778101413 | 16.11° C | 60% | 1015.5 hPa | 0 mm | - | 206 W/m² | - |
| 1778101110 | 16.11° C | 64% | 1015.5 hPa | 0 mm | - | 141 W/m² | - |
| 1778100806 | 16.11° C | 60% | 1015.5 hPa | 0 mm | - | 166 W/m² | - |
| 1778100503 | 16.67° C | 64% | 1015.5 hPa | 0 mm | - | 169 W/m² | - |
| 1778100200 | 16.11° C | 63% | 1015.1 hPa | 0 mm | - | 193 W/m² | - |
| 1778099898 | 16.67° C | 65% | 1015.1 hPa | 0 mm | - | 179 W/m² | - |
| 1778099595 | 16.11° C | 60% | 1015.1 hPa | 0 mm | - | 201 W/m² | - |
| 1778099292 | 16.11° C | 59% | 1015.1 hPa | 0 mm | - | 270 W/m² | - |
| 1778098989 | 17.22° C | 66% | 1015.1 hPa | 0 mm | - | 226 W/m² | - |
| 1778098685 | 17.22° C | 61% | 1015.1 hPa | 0 mm | - | 222 W/m² | - |
| 1778098383 | 16.67° C | 67% | 1015.8 hPa | 0 mm | - | 219 W/m² | - |
| 1778098080 | 16.67° C | 64% | 1015.8 hPa | 0 mm | - | 193 W/m² | - |
| 1778097775 | 16.67° C | 59% | 1015.8 hPa | 0 mm | - | 253 W/m² | - |
| 1778097472 | 16.11° C | 66% | 1015.8 hPa | 0 mm | - | 294 W/m² | - |
* Rain latest hour (hover to see other rain measurements)
** Current wind speed in m/s (hover to see current wind gust speed)